Time,TemperatureF,DewpointF,PressureIn,WindDirection,WindDirectionDegrees,WindSpeedMPH,WindSpeedGustMPH,Humidity,HourlyPrecipIn,Conditions,Clouds,dailyrainin,SoftwareType,DateUTC
2013-12-25 00:12:00,12.0,9.0,30.15,SSW,211,8.0,0.0,89,-99.99,,,-99.99,,2013-12-25 06:12:00,
2013-12-25 00:22:00,12.0,9.0,30.15,SSW,213,8.0,0.0,89,-99.99,,,-99.99,,2013-12-25 06:22:00,
2013-12-25 00:42:00,14.0,11.0,30.15,SSW,209,8.0,0.0,89,-99.99,,,-99.99,,2013-12-25 06:42:00,
2013-12-25 00:52:00,14.0,11.0,30.14,SSW,212,8.0,0.0,88,-99.99,,,-99.99,,2013-12-25 06:52:00,
2013-12-25 01:12:00,14.0,11.0,30.14,SW,219,7.0,0.0,88,-99.99,,,-99.99,,2013-12-25 07:12:00,
2013-12-25 01:22:00,14.0,11.0,30.14,SW,220,8.0,0.0,89,-99.99,,,-99.99,,2013-12-25 07:22:00,
2013-12-25 01:42:00,15.0,12.0,30.14,SW,235,8.0,0.0,89,-99.99,,,-99.99,,2013-12-25 07:42:00,
2013-12-25 01:52:00,16.0,14.0,30.14,SW,222,8.0,0.0,90,-99.99,,,-99.99,,2013-12-25 07:52:00,
2013-12-25 02:01:00,16.0,14.0,30.14,SW,222,8.0,0.0,90,-99.99,,,-99.99,,2013-12-25 08:01:00,
2013-12-25 02:11:00,16.0,14.0,30.14,SW,222,8.0,0.0,90,-99.99,,,-99.99,,2013-12-25 08:11:00,
2013-12-25 02:21:00,16.0,14.0,30.14,SW,233,7.0,0.0,91,-99.99,,,-99.99,,2013-12-25 08:21:00,
2013-12-25 02:42:00,17.0,15.0,30.14,West,259,7.0,0.0,91,-99.99,,,-99.99,,2013-12-25 08:42:00,
2013-12-25 02:52:00,17.0,15.0,30.14,West,267,6.0,0.0,91,-99.99,,,-99.99,,2013-12-25 08:52:00,
2013-12-25 03:11:00,18.0,16.0,30.13,WSW,248,4.0,0.0,90,-99.99,,,-99.99,,2013-12-25 09:11:00,
2013-12-25 03:21:00,18.0,16.0,30.13,WSW,248,4.0,0.0,90,-99.99,,,-99.99,,2013-12-25 09:21:00,
2013-12-25 03:33:00,18.0,16.0,30.13,WSW,248,4.0,0.0,90,-99.99,,,-99.99,,2013-12-25 09:33:00,
2013-12-25 03:42:00,18.0,16.0,30.13,WSW,248,4.0,0.0,90,-99.99,,,-99.99,,2013-12-25 09:42:00,
2013-12-25 04:11:00,18.0,16.0,30.12,SW,228,4.0,0.0,90,-99.99,,,-99.99,,2013-12-25 10:11:00,
2013-12-25 04:22:00,18.0,16.0,30.12,SW,229,4.0,0.0,90,-99.99,,,-99.99,,2013-12-25 10:22:00,
2013-12-25 04:43:00,18.0,16.0,30.12,SW,223,5.0,0.0,90,-99.99,,,-99.99,,2013-12-25 10:43:00,
2013-12-25 04:53:00,18.0,16.0,30.12,SW,223,5.0,0.0,90,-99.99,,,-99.99,,2013-12-25 10:53:00,
2013-12-25 05:12:00,18.0,16.0,30.11,SW,220,6.0,0.0,90,-99.99,,,-99.99,,2013-12-25 11:12:00,
2013-12-25 05:22:00,18.0,16.0,30.11,SW,220,6.0,0.0,90,-99.99,,,-99.99,,2013-12-25 11:22:00,
2013-12-25 05:32:00,18.0,16.0,30.11,SW,220,6.0,0.0,90,-99.99,,,-99.99,,2013-12-25 11:32:00,
2013-12-25 05:42:00,18.0,16.0,30.11,SW,220,6.0,0.0,90,-99.99,,,-99.99,,2013-12-25 11:42:00,
2013-12-25 05:52:00,19.0,17.0,30.10,SW,231,6.0,0.0,90,-99.99,,,-99.99,,2013-12-25 11:52:00,
2013-12-25 06:11:00,19.0,17.0,30.09,SSW,212,8.0,0.0,90,-99.99,,,-99.99,,2013-12-25 12:11:00,
2013-12-25 06:22:00,20.0,18.0,30.09,SSW,196,7.0,0.0,90,-99.99,,,-99.99,,2013-12-25 12:22:00,
2013-12-25 06:42:00,20.0,18.0,30.09,SSW,205,9.0,0.0,90,-99.99,,,-99.99,,2013-12-25 12:42:00,
2013-12-25 06:52:00,20.0,18.0,30.09,SSW,205,9.0,0.0,90,-99.99,,,-99.99,,2013-12-25 12:52:00,
2013-12-25 07:12:00,20.0,18.0,30.07,SSW,192,5.0,0.0,91,-99.99,,,-99.99,,2013-12-25 13:12:00,
2013-12-25 07:21:00,20.0,18.0,30.07,SSW,192,5.0,0.0,91,-99.99,,,-99.99,,2013-12-25 13:21:00,
2013-12-25 07:32:00,20.0,18.0,30.07,SSW,192,5.0,0.0,91,-99.99,,,-99.99,,2013-12-25 13:32:00,
2013-12-25 07:42:00,20.0,18.0,30.07,SSW,192,5.0,0.0,91,-99.99,,,-99.99,,2013-12-25 13:42:00,
2013-12-25 07:52:00,20.0,18.0,30.08,SSW,210,6.0,0.0,92,-99.99,,,-99.99,,2013-12-25 13:52:00,
2013-12-25 08:12:00,20.0,18.0,30.07,SSW,195,6.0,0.0,93,-99.99,,,-99.99,,2013-12-25 14:12:00,
2013-12-25 08:22:00,21.0,19.0,30.07,SW,224,10.0,0.0,93,-99.99,,,-99.99,,2013-12-25 14:22:00,
2013-12-25 08:42:00,22.0,20.0,30.08,SW,215,4.0,0.0,93,-99.99,,,-99.99,,2013-12-25 14:42:00,
2013-12-25 08:52:00,22.0,20.0,30.08,SW,215,4.0,0.0,93,-99.99,,,-99.99,,2013-12-25 14:52:00,
2013-12-25 09:02:00,22.0,20.0,30.08,SW,215,4.0,0.0,93,-99.99,,,-99.99,,2013-12-25 15:02:00,
2013-12-25 09:11:00,22.0,20.0,30.08,SW,215,4.0,0.0,93,-99.99,,,-99.99,,2013-12-25 15:11:00,
2013-12-25 09:22:00,24.0,22.0,30.08,SW,230,12.0,0.0,93,-99.99,,,-99.99,,2013-12-25 15:22:00,
2013-12-25 09:43:00,24.0,23.0,30.08,SW,233,8.0,0.0,94,-99.99,,,-99.99,,2013-12-25 15:43:00,
2013-12-25 09:53:00,24.0,23.0,30.08,SW,233,8.0,0.0,94,-99.99,,,-99.99,,2013-12-25 15:53:00,
2013-12-25 10:13:00,24.0,23.0,30.09,WSW,238,6.0,0.0,94,-99.99,,,-99.99,,2013-12-25 16:13:00,
2013-12-25 10:23:00,24.0,23.0,30.09,WSW,246,7.0,0.0,94,-99.99,,,-99.99,,2013-12-25 16:23:00,
2013-12-25 10:42:00,25.0,24.0,30.09,WSW,244,7.0,0.0,94,-99.99,,,-99.99,,2013-12-25 16:42:00,
2013-12-25 10:53:00,25.0,24.0,30.09,WSW,244,7.0,0.0,94,-99.99,,,-99.99,,2013-12-25 16:53:00,
2013-12-25 11:12:00,26.0,24.0,30.10,West,262,8.0,0.0,93,-99.99,,,-99.99,,2013-12-25 17:12:00,
2013-12-25 11:22:00,26.0,24.0,30.10,West,262,8.0,0.0,93,-99.99,,,-99.99,,2013-12-25 17:22:00,
2013-12-25 11:42:00,28.0,26.0,30.09,WNW,285,10.0,0.0,92,-99.99,,,-99.99,,2013-12-25 17:42:00,
2013-12-25 11:52:00,28.0,26.0,30.09,West,278,11.0,0.0,92,-99.99,,,-99.99,,2013-12-25 17:52:00,
2013-12-25 12:12:00,29.0,27.0,30.09,WNW,283,8.0,0.0,91,-99.99,,,-99.99,,2013-12-25 18:12:00,
2013-12-25 12:22:00,30.0,27.0,30.09,North,8,9.0,0.0,90,-99.99,,,-99.99,,2013-12-25 18:22:00,
2013-12-25 12:42:00,30.0,27.0,30.09,WSW,252,8.0,0.0,90,-99.99,,,-99.99,,2013-12-25 18:42:00,
2013-12-25 12:52:00,30.0,27.0,30.09,WSW,252,8.0,0.0,90,-99.99,,,-99.99,,2013-12-25 18:52:00,
2013-12-25 13:01:00,30.0,27.0,30.09,WSW,252,8.0,0.0,90,-99.99,,,-99.99,,2013-12-25 19:01:00,
2013-12-25 13:22:00,30.0,27.0,30.09,North,11,11.0,22.0,90,-99.99,,,-99.99,,2013-12-25 19:22:00,
2013-12-25 13:42:00,28.0,25.0,30.09,North,353,15.0,24.0,87,-99.99,,,-99.99,,2013-12-25 19:42:00,
2013-12-25 13:52:00,27.0,23.0,30.10,NNE,24,14.0,21.0,86,-99.99,,,-99.99,,2013-12-25 19:52:00,
2013-12-25 14:11:00,26.0,22.0,30.11,NNE,13,15.0,22.0,85,-99.99,,,-99.99,,2013-12-25 20:11:00,
2013-12-25 14:21:00,26.0,22.0,30.11,North,5,10.0,22.0,85,-99.99,,,-99.99,,2013-12-25 20:21:00,
2013-12-25 14:42:00,25.0,21.0,30.11,NE,48,7.0,16.0,85,-99.99,,,-99.99,,2013-12-25 20:42:00,
2013-12-25 14:52:00,25.0,20.0,30.11,NW,319,12.0,16.0,82,-99.99,,,-99.99,,2013-12-25 20:52:00,
2013-12-25 15:12:00,24.0,20.0,30.12,NNE,21,6.0,14.0,83,-99.99,,,-99.99,,2013-12-25 21:12:00,
2013-12-25 15:22:00,24.0,19.0,30.12,North,11,5.0,0.0,82,-99.99,,,-99.99,,2013-12-25 21:22:00,
2013-12-25 15:43:00,23.0,17.0,30.13,ENE,61,12.0,15.0,76,-99.99,,,-99.99,,2013-12-25 21:43:00,
2013-12-25 15:53:00,22.0,15.0,30.13,North,8,12.0,0.0,75,-99.99,,,-99.99,,2013-12-25 21:53:00,
2013-12-25 16:13:00,21.0,15.0,30.14,NE,48,11.0,17.0,77,-99.99,,,-99.99,,2013-12-25 22:13:00,
2013-12-25 16:23:00,20.0,15.0,30.15,NNE,26,7.0,0.0,79,-99.99,,,-99.99,,2013-12-25 22:23:00,
2013-12-25 16:43:00,20.0,15.0,30.15,NNW,340,6.0,0.0,82,-99.99,,,-99.99,,2013-12-25 22:43:00,
2013-12-25 16:52:00,20.0,15.0,30.15,NNE,22,5.0,0.0,82,-99.99,,,-99.99,,2013-12-25 22:52:00,
2013-12-25 17:12:00,20.0,15.0,30.15,NW,319,8.0,0.0,81,-99.99,,,-99.99,,2013-12-25 23:12:00,
2013-12-25 17:22:00,20.0,15.0,30.15,NW,319,8.0,0.0,81,-99.99,,,-99.99,,2013-12-25 23:22:00,
2013-12-25 17:43:00,19.0,14.0,30.15,North,349,3.0,0.0,82,-99.99,,,-99.99,,2013-12-25 23:43:00,
2013-12-25 17:52:00,19.0,14.0,30.15,North,349,3.0,0.0,82,-99.99,,,-99.99,,2013-12-25 23:52:00,
2013-12-25 18:11:00,16.0,12.0,30.16,NE,34,1.0,0.0,83,-99.99,,,-99.99,,2013-12-26 00:11:00,
2013-12-25 18:22:00,16.0,12.0,30.16,NE,34,1.0,0.0,83,-99.99,,,-99.99,,2013-12-26 00:22:00,
2013-12-25 19:12:00,11.0,9.0,30.17,WNW,297,1.0,0.0,91,-99.99,,,-99.99,,2013-12-26 01:12:00,
2013-12-25 19:21:00,11.0,9.0,30.17,WNW,297,1.0,0.0,91,-99.99,,,-99.99,,2013-12-26 01:21:00,
2013-12-25 19:32:00,11.0,9.0,30.17,WNW,297,1.0,0.0,91,-99.99,,,-99.99,,2013-12-26 01:32:00,
2013-12-25 19:42:00,11.0,9.0,30.17,WNW,297,1.0,0.0,91,-99.99,,,-99.99,,2013-12-26 01:42:00,
2013-12-25 20:12:00,18.0,15.0,30.17,WSW,257,5.0,0.0,89,-99.99,,,-99.99,,2013-12-26 02:12:00,
2013-12-25 20:21:00,19.0,16.0,30.16,WNW,283,6.0,0.0,88,-99.99,,,-99.99,,2013-12-26 02:21:00,
2013-12-25 21:11:00,19.0,16.0,30.15,West,265,5.0,0.0,86,-99.99,,,-99.99,,2013-12-26 03:11:00,
2013-12-25 21:22:00,19.0,16.0,30.15,West,267,6.0,0.0,86,-99.99,,,-99.99,,2013-12-26 03:22:00,
2013-12-25 21:53:00,21.0,18.0,30.14,West,260,6.0,0.0,87,-99.99,,,-99.99,,2013-12-26 03:53:00,
2013-12-25 22:13:00,22.0,19.0,30.14,West,266,6.0,0.0,87,-99.99,,,-99.99,,2013-12-26 04:13:00,
2013-12-25 22:23:00,22.0,18.0,30.13,West,259,3.0,0.0,86,-99.99,,,-99.99,,2013-12-26 04:23:00,
2013-12-25 22:43:00,20.0,16.0,30.13,West,264,4.0,0.0,85,-99.99,,,-99.99,,2013-12-26 04:43:00,
2013-12-25 22:52:00,20.0,16.0,30.13,West,264,4.0,0.0,85,-99.99,,,-99.99,,2013-12-26 04:52:00,
2013-12-25 23:12:00,20.0,17.0,30.12,SW,233,6.0,0.0,88,-99.99,,,-99.99,,2013-12-26 05:12:00,
2013-12-25 23:22:00,21.0,18.0,30.13,WSW,245,6.0,0.0,88,-99.99,,,-99.99,,2013-12-26 05:22:00,
2013-12-25 23:42:00,21.0,18.0,30.12,WSW,238,5.0,0.0,88,-99.99,,,-99.99,,2013-12-26 05:42:00,
2013-12-25 23:53:00,21.0,18.0,30.12,SW,233,5.0,0.0,88,-99.99,,,-99.99,,2013-12-26 05:53:00,